{"data":{"norad_id":55820,"epoch":"2026-05-25T03:20:16.557792Z","epoch_age_seconds":59476,"freshness":"FRESH","line1":"1 55820U 23029AA  26145.13908053 -.00000180  00000+0 -51999-3 0  9999","line2":"2 55820  87.8947 294.2928 0001759  86.6963 273.4368 13.14501878156374","mean_motion":13.14501878,"eccentricity":0.0001759,"inclination_deg":87.8947,"raan_deg":294.2928,"arg_perigee_deg":86.6963,"mean_anomaly_deg":273.4368,"bstar":-0.00051999,"rev_number":15637,"period_min":109.54719990138,"perigee_km":1204.4598874747,"apogee_km":1207.1279143656,"semimajor_km":7583.9309009202,"source":"CELESTRAK","updated_at":"2026-05-25T13:38:22.695518Z"}}